sat.trackr.live / text

‹ back to catalog

STARLINK-34501

NORAD 64429 · 2025-129T

PAYLOAD ACTIVE UNKNOWN

§ Identity

Operator
Country
US
Launch date
2025-06-17
Launch site
AFWTR
Launch vehicle
Mass (kg)
RCS (m²)

Purposes: comms

External: N2YO · Heavens-Above · Gunter

§ Orbital elements

Epoch: 2026-05-24T19:01:33.389184Z

Period
96.11 min
Inclination
70.0008°
Eccentricity
0.0002909
Mean motion
14.98334423 rev/d
Perigee alt
570.0 km
Apogee alt
574.1 km
Semi-major
6,950.2 km
B*
1.7375e-4
RAAN
242.6981°
Arg perigee
267.9705°
Mean anomaly
92.1121°
Rev number
5,268

§ Raw data

STARLINK-345011 64429U 25129T   26144.79274756  .00001981  00000+0  17375-3 0  99922 64429  70.0008 242.6981 0002909 267.9705  92.1121 14.98334423 52688

JSON: /api/v1/satellites/64429 · /tle

For live sub-satellite position, see the globe view (requires WebGL).

§ Visibility from observer

Set your observer location to see the next 7 days of passes ≥ 10°. The values pass through the URL so the page stays shareable.

No JS? Fill the form by hand. The geolocation button needs JavaScript.